�������r�C�����j�^�v���󋵏��
Date,Time,5�C6���@���p�r�C��,����,����(m/s)
2021/08/03,00:00,3.9,��,6.9
2021/08/03,00:10,3.8,��,7.0
2021/08/03,00:20,3.8,��,6.8
2021/08/03,00:30,3.9,��,6.4
2021/08/03,00:40,3.8,��,6.7
2021/08/03,00:50,3.9,��,5.9
2021/08/03,01:00,3.8,��,7.9
2021/08/03,01:10,3.9,��,8.3
2021/08/03,01:20,3.9,��,8.0
2021/08/03,01:30,3.8,��,8.3
2021/08/03,01:40,3.9,��,8.3
2021/08/03,01:50,3.7,��,7.6
2021/08/03,02:00,3.8,��,7.7
2021/08/03,02:10,3.7,��,6.3
2021/08/03,02:20,3.8,��,6.8
2021/08/03,02:30,3.8,��,8.0
2021/08/03,02:40,3.7,��,7.0
2021/08/03,02:50,3.9,��,6.0
2021/08/03,03:00,3.8,��,6.5
2021/08/03,03:10,3.8,��,8.2
2021/08/03,03:20,4.0,��,8.4
2021/08/03,03:30,3.9,��,7.7
2021/08/03,03:40,4.0,��,6.4
2021/08/03,03:50,3.8,��,6.1
2021/08/03,04:00,3.8,��,5.2
2021/08/03,04:10,3.8,��,4.8
2021/08/03,04:20,3.7,��,4.7
2021/08/03,04:30,4.0,��,5.3
2021/08/03,04:40,3.9,��,6.3
2021/08/03,04:50,4.0,��,7.1
2021/08/03,05:00,3.9,��,6.3
2021/08/03,05:10,3.8,��,5.7
2021/08/03,05:20,3.8,��,5.8
2021/08/03,05:30,3.9,��,4.8
2021/08/03,05:40,3.8,��,4.2
2021/08/03,05:50,3.8,��,3.6
2021/08/03,06:00,3.9,��,4.1
2021/08/03,06:10,3.8,��,4.7
2021/08/03,06:20,3.7,��,4.2
2021/08/03,06:30,3.9,��,4.5
2021/08/03,06:40,3.8,��,6.3
2021/08/03,06:50,3.7,��,6.0
2021/08/03,07:00,3.9,��,6.5
2021/08/03,07:10,3.7,��,7.6
2021/08/03,07:20,3.9,��,7.6
2021/08/03,07:30,3.7,��쓌,8.7
2021/08/03,07:40,3.9,��,7.6
2021/08/03,07:50,3.8,��,7.2
2021/08/03,08:00,3.7,��쓌,7.8
2021/08/03,08:10,3.9,��,8.0
2021/08/03,08:20,3.8,��,7.3
2021/08/03,08:30,4.0,��,7.8
2021/08/03,08:40,3.7,��,8.5
2021/08/03,08:50,3.9,��,9.6
2021/08/03,09:00,3.7,��,9.0
2021/08/03,09:10,4.0,��,9.9
2021/08/03,09:20,3.8,��,10.9
2021/08/03,09:30,3.8,��,10.0
2021/08/03,09:40,3.8,��,10.2
2021/08/03,09:50,3.9,��,11.7
2021/08/03,10:00,3.8,��,11.1
2021/08/03,10:10,3.7,��,10.2
2021/08/03,10:20,3.8,��,9.9
2021/08/03,10:30,3.9,��,10.5
2021/08/03,10:40,3.8,��,10.2
2021/08/03,10:50,3.7,��,12.0
2021/08/03,11:00,3.7,��,10.8
2021/08/03,11:10,3.7,��,11.6
2021/08/03,11:20,3.7,��쓌,12.5
2021/08/03,11:30,4.0,��쓌,11.3
2021/08/03,11:40,3.8,��쓌,11.6
2021/08/03,11:50,3.8,��,11.9
2021/08/03,12:00,3.9,��쓌,12.8
2021/08/03,12:10,3.8,��쓌,11.4
2021/08/03,12:20,3.7,��쓌,12.7
2021/08/03,12:30,3.8,��쓌,11.6
2021/08/03,12:40,3.8,��,10.2
2021/08/03,12:50,3.8,��쓌,10.7
2021/08/03,13:00,3.7,��쓌,12.0
2021/08/03,13:10,4.0,��쓌,12.0
2021/08/03,13:20,3.8,��,12.4
2021/08/03,13:30,3.9,��,12.8
2021/08/03,13:40,3.9,��쓌,13.1
2021/08/03,13:50,3.9,��,12.4
2021/08/03,14:00,3.8,��,11.3
2021/08/03,14:10,3.9,��,10.7
2021/08/03,14:20,3.7,��쓌,13.5
2021/08/03,14:30,3.8,��,13.5
2021/08/03,14:40,4.0,��,11.6
2021/08/03,14:50,3.8,��,12.7
2021/08/03,15:00,3.7,��,11.3
2021/08/03,15:10,3.8,��,10.0
2021/08/03,15:20,3.8,��쓌,9.1
2021/08/03,15:30,3.9,��,9.9
2021/08/03,15:40,3.9,��,9.0
2021/08/03,15:50,3.7,��,8.4
2021/08/03,16:00,3.9,��,7.9
2021/08/03,16:10,3.7,��쓌,9.0
2021/08/03,16:20,4.0,��쓌,9.9
2021/08/03,16:30,3.9,��,9.2
2021/08/03,16:40,3.9,��,9.7
2021/08/03,16:50,3.9,��,9.6
2021/08/03,17:00,3.9,��,9.3
2021/08/03,17:10,3.8,��,8.6
2021/08/03,17:20,4.0,��,8.9
2021/08/03,17:30,3.8,��,10.3
2021/08/03,17:40,3.7,��,9.1
2021/08/03,17:50,3.8,��,8.7
2021/08/03,18:00,3.7,��,8.7
2021/08/03,18:10,3.8,��,6.5
2021/08/03,18:20,3.7,��쐼,5.8
2021/08/03,18:30,3.8,��,5.6
2021/08/03,18:40,3.7,��,7.1
2021/08/03,18:50,3.7,��,6.4
2021/08/03,19:00,3.8,��,6.2
2021/08/03,19:10,3.8,��,6.5
2021/08/03,19:20,3.5,��,6.6
2021/08/03,19:30,3.8,��,7.0
2021/08/03,19:40,3.9,��,6.6
2021/08/03,19:50,3.9,��,5.7
2021/08/03,20:00,3.7,��,6.8
2021/08/03,20:10,3.9,��,6.9
2021/08/03,20:20,4.0,��,7.5
2021/08/03,20:30,3.7,��,8.4
2021/08/03,20:40,3.7,��,8.3
2021/08/03,20:50,4.0,��,8.0
2021/08/03,21:00,4.0,��,8.9
2021/08/03,21:10,3.8,��,7.9
2021/08/03,21:20,4.0,��,8.0
2021/08/03,21:30,3.8,��,7.0
2021/08/03,21:40,3.8,��,6.8
2021/08/03,21:50,3.6,��,7.3
2021/08/03,22:00,3.8,��,5.7
2021/08/03,22:10,3.8,��,5.1
2021/08/03,22:20,3.9,��,4.7
2021/08/03,22:30,3.8,��,5.2
2021/08/03,22:40,3.8,��,5.2
2021/08/03,22:50,3.9,��,5.0
2021/08/03,23:00,3.8,��,5.2
2021/08/03,23:10,3.8,��,5.4
2021/08/03,23:20,4.0,��,6.9
2021/08/03,23:30,3.9,��,6.2
2021/08/03,23:40,3.8,��,7.3
2021/08/03,23:50,3.7,��,7.0
